Weather History for Wolf Point, MT

Change the Weather History Date:

Saturday, November 24, 2012

  Actual Average Record
Temperature  
Mean Temperature 30 °F -  
Max Temperature 40 °F 35 °F 56 °F (2011)
Min Temperature 19 °F 11 °F -4 °F (2003)
Degree Days  
Heating Degree Days 35    
Cooling Degree Days 0    
Moisture  
Dew Point 24 °F    
Average Humidity 84    
Maximum Humidity 92    
Minimum Humidity 70    
Precipitation  
Precipitation 0.01 in 0.01 in 0.07 in (2003)
Month to date precipitation 0.28 0.33  
Year to date precipitation 10.15 11.82  
Sea Level Pressure  
Sea Level Pressure 29.99 in    
Wind  
Wind Speed 4 mph (West)    
Max Wind Speed 17 mph    
Max Gust Speed -    
Visibility 10 miles    
Events Rain    
T = Trace of Precipitation, MM = Missing Value Source: NWS Daily Summary

Daily Weather History Graph

Daily Weather History Graph

Search for Another Location

Airport:

Trip Planner

Search our weather history database for the weather conditions in past years. The results will help you decide how hot, cold, wet, or windy it might be!

Date:

Astronomy

Nov. 24, 2012 Rise Set
Actual Time 7:22 AM MST 4:15 PM MST
Civil Twilight 6:47 AM MST 4:50 PM MST
Nautical Twilight 6:09 AM MST 5:28 PM MST
Astronomical Twilight 5:32 AM MST 6:05 PM MST
Moon 2:12 PM MST (11/24) 3:29 AM MST (11/24)
Length of Visible Light 10h 02m
Length of Day
8h 52m
Waxing Gibbous, 87% of the Moon is Illuminated
Nov 24
Waxing Gibbous
Nov 28
Full
Dec 6
Last Quarter
Dec 13
New
Dec 19
First Quarter

Hourly Weather History & Observations

Time (MST) Temp. Windchill Dew Point Humidity Pressure Visibility Wind Dir Wind Speed Gust Speed Precip Events Conditions
12:53 AM 19.9 °F - 17.1 °F 89% 29.99 in 10.0 mi Calm Calm - N/A   Clear
1:53 AM 19.9 °F - 17.1 °F 89% 29.97 in 10.0 mi Calm Calm - N/A   Clear
2:53 AM 19.9 °F - 18.0 °F 92% 29.95 in 10.0 mi Calm Calm - N/A   Clear
3:53 AM 19.9 °F - 18.0 °F 92% 29.94 in 10.0 mi Calm Calm - N/A   Partly Cloudy
4:53 AM 23.0 °F - 21.0 °F 92% 29.93 in 10.0 mi Calm Calm - N/A   Mostly Cloudy
5:51 AM 26.6 °F 19.1 °F 23.0 °F 86% 29.84 in 8.0 mi SW 6.9 mph - 0.00 in Rain Light Freezing Rain
5:53 AM 26.1 °F 17.6 °F 23.0 °F 88% 29.93 in 8.0 mi SW 8.1 mph - 0.01 in Rain Light Freezing Rain
6:22 AM 26.6 °F 22.6 °F 23.0 °F 86% 29.84 in 10.0 mi WSW 3.5 mph - 0.00 in   Mostly Cloudy
6:53 AM 27.0 °F - 24.1 °F 89% 29.92 in 10.0 mi Calm Calm - 0.00 in   Scattered Clouds
7:53 AM 27.0 °F - 24.1 °F 89% 29.93 in 10.0 mi Calm Calm - N/A   Partly Cloudy
8:53 AM 28.9 °F 21.1 °F 26.1 °F 89% 29.92 in 10.0 mi SW 8.1 mph - N/A   Partly Cloudy
9:53 AM 30.9 °F 25.2 °F 27.0 °F 85% 29.94 in 10.0 mi WSW 5.8 mph - N/A   Clear
10:53 AM 35.1 °F 29.3 °F 30.0 °F 82% 29.95 in 10.0 mi South 6.9 mph - N/A   Partly Cloudy
11:20 AM 39.2 °F 31.6 °F 30.2 °F 70% 29.88 in 10.0 mi WNW 12.7 mph - N/A   Mostly Cloudy
11:53 AM 39.0 °F 33.4 °F 30.9 °F 73% 29.94 in 10.0 mi WNW 8.1 mph - N/A   Mostly Cloudy
12:53 PM 37.9 °F 28.5 °F 28.9 °F 70% 29.97 in 10.0 mi NNW 17.3 mph - N/A   Mostly Cloudy
1:53 PM 37.9 °F 35.5 °F 28.9 °F 70% 29.99 in 10.0 mi NNW 3.5 mph - N/A   Mostly Cloudy
2:53 PM 36.0 °F 29.6 °F 28.9 °F 76% 30.02 in 10.0 mi West 8.1 mph - N/A   Overcast
3:53 PM 34.0 °F 28.8 °F 27.0 °F 75% 30.04 in 10.0 mi NW 5.8 mph - N/A   Scattered Clouds
4:53 PM 33.1 °F 25.5 °F 26.1 °F 75% 30.06 in 10.0 mi WNW 9.2 mph - N/A   Clear
5:53 PM 30.9 °F 25.2 °F 25.0 °F 79% 30.08 in 10.0 mi West 5.8 mph - N/A   Clear
6:53 PM 28.0 °F 18.6 °F 24.1 °F 85% 30.10 in 10.0 mi West 10.4 mph - N/A   Clear
7:53 PM 25.0 °F 19.3 °F 21.9 °F 88% 30.10 in 10.0 mi SW 4.6 mph - N/A   Clear
8:53 PM 26.1 °F 17.6 °F 23.0 °F 88% 30.10 in 10.0 mi SW 8.1 mph - N/A   Clear
9:53 PM 21.9 °F 14.5 °F 19.9 °F 92% 30.11 in 10.0 mi WSW 5.8 mph - N/A   Clear
10:53 PM 21.9 °F 13.4 °F 19.9 °F 92% 30.11 in 10.0 mi WSW 6.9 mph - N/A   Clear
11:53 PM 19.9 °F - 18.0 °F 92% 30.09 in 10.0 mi Calm Calm - N/A   Clear